Location: Poughquag
(41.6090°N, 73.6820°W)
Time: 08:56:48
(UTC-05:00)

SR - Pass Details

Date: 15 December 2023
Orbit: 574 x 868 km, 66.7° (Epoch: 25 February)

Event Time Altitude Azimuth Distance (km) Brightness Sun altitude
Rises 18:31:44 0° 321° (NW) 3,417 ? -22.8°
Reaches altitude 10° 18:34:29 10° 312° (NW) 2,448 ? -23.3°
Maximum altitude 18:39:27 32° 251° (WSW) 1,332 ? -24.2°
Drops below altitude 10° 18:44:06 10° 189° (S) 2,282 ? -25.0°
Sets 18:46:35 0° 179° (S) 3,152 ? -25.5°
